This is the latest recevied weather packets stored in our database for station/object KQ4KX. If no packets are shown the sender has not sent any weather packets the latest 10 day(s).
| Time | Temp. | Humidity | Pressure | Rain* | Wind** | Luminosity | Snow |
|---|---|---|---|---|---|---|---|
| 1777835338 | 24.44° C | 72% | 1017 hPa | 0 mm | - | - | - |
| 1777835038 | 24.44° C | 72% | 1017 hPa | 0 mm | - | - | - |
| 1777834438 | 24.44° C | 73% | 1017.2 hPa | 0 mm | - | - | - |
| 1777834108 | 24.44° C | 73% | 1017.3 hPa | 0 mm | - | - | - |
| 1777833809 | 24.44° C | 73% | 1017.3 hPa | 0 mm | - | - | - |
| 1777833148 | 24.44° C | 73% | 1017.5 hPa | 0 mm | - | - | - |
| 1777832818 | 24.44° C | 73% | 1017.5 hPa | 0 mm | - | - | - |
| 1777832518 | 23.89° C | 74% | 1017.6 hPa | 0 mm | - | - | - |
| 1777831888 | 23.89° C | 74% | 1017.6 hPa | 0 mm | - | - | - |
| 1777830958 | 23.89° C | 74% | 1018 hPa | 0 mm | - | - | - |
| 1777830299 | 23.89° C | 74% | 1018 hPa | 0 mm | - | - | - |
| 1777829998 | 23.89° C | 77% | 1018.1 hPa | 0 mm | - | - | - |
| 1777829338 | 23.33° C | 76% | 1018 hPa | 0 mm | - | - | - |
| 1777829038 | 23.33° C | 78% | 1018 hPa | 0 mm | - | - | - |
| 1777828378 | 23.33° C | 76% | 1018 hPa | 0 mm | - | - | - |
| 1777828078 | 23.33° C | 76% | 1018.2 hPa | 0 mm | - | - | - |
| 1777827748 | 23.33° C | 76% | 1018.2 hPa | 0 mm | - | - | - |
| 1777827418 | 22.78° C | 78% | 1018.3 hPa | 0 mm | - | - | - |
| 1777827088 | 22.78° C | 79% | 1018.2 hPa | 0 mm | - | - | - |
| 1777826428 | 22.22° C | 79% | 1018.5 hPa | 0 mm | - | - | - |
| 1777826128 | 22.22° C | 79% | 1018.4 hPa | 0 mm | - | - | - |
| 1777825828 | 22.22° C | 81% | 1018.5 hPa | 0 mm | - | - | - |
| 1777825199 | 21.67° C | 81% | 1018.5 hPa | 0 mm | - | - | - |
| 1777824569 | 21.67° C | 81% | 1018.6 hPa | 0 mm | - | - | - |
| 1777824238 | 22.22° C | 80% | 1018.6 hPa | 0 mm | - | - | - |
* Rain latest hour (hover to see other rain measurements)
** Current wind speed in m/s (hover to see current wind gust speed)